Location: Unspecified
(0.0000°N, 0.0000°E)
Time: 01:48:55
(UTC+00:00)

UKube-1 - Visible Passes

Search period start: 27 February 2021 00:00
Search period end: 09 March 2021 00:00
Orbit: 612 x 619 km, 98.4° (Epoch: 26 February)

Date Brightness Start Highest point End Pass type
(mag) Time Alt. Az. Time Alt. Az. Time Alt. Az.
27 Feb ? 19:30:42 10° N 19:34:54 57° WNW 19:39:09 10° SSW visible
28 Feb ? 19:46:46 10° NNW 19:50:38 33° WNW 19:54:32 10° SW visible
01 Mar ? 20:03:10 10° NNW 20:06:21 20° WNW 20:09:33 10° SW visible
02 Mar ? 18:42:47 10° NE 18:46:24 26° ESE 18:50:00 10° SSE visible
02 Mar ? 20:20:17 10° NW 20:22:04 12° WNW 20:23:51 10° WSW visible
03 Mar ? 18:58:01 10° NNE 19:02:06 44° ESE 19:06:13 10° S visible
04 Mar ? 19:13:32 10° NNE 19:17:49 76° E 19:22:08 10° S visible
05 Mar ? 19:29:18 10° N 19:33:32 63° WNW 19:37:49 10° SSW visible
06 Mar ? 19:45:18 10° N 19:49:16 37° WNW 19:53:15 10° SW visible
07 Mar ? 20:01:37 10° NNW 20:04:59 22° WNW 20:08:22 10° SW visible
08 Mar ? 18:41:33 10° NE 18:45:01 24° ESE 18:48:28 10° SSE visible
08 Mar ? 20:18:30 10° NW 20:20:41 14° WNW 20:22:53 10° WSW visible
